AirNav   Pilot Hours Calculator
 
 565 users online  

NY40 Gentzke Aeronautical Park Airport
Holland, New York, USA

GOING TO HOLLAND?


FAA INFORMATION EFFECTIVE 01 DECEMBER 2022

Location

FAA Identifier: NY40
Lat/Long: 42-36-38.2200N 078-35-44.0860W
42-36.637000N 078-35.734767W
42.6106167,-78.5955794
(estimated)
Elevation: 1750 ft. / 533 m (estimated)
Variation: 10W (1985)
From city: 4 miles SW of HOLLAND, NY
Time zone: UTC -5 (UTC -4 during Daylight Saving Time)
Zip code: 14080

Airport Operations

Airport use: CLOSED INDEFINITELY
Activation date: 11/1988
Control tower: no
ARTCC: CLEVELAND CENTER
FSS: BUFFALO FLIGHT SERVICE STATION
Attendance: UNATNDD
Wind indicator: yes
Segmented circle: no

Nearby radio navigation aids

VOR radial/distance  VOR name  Freq  Var
JHWr050/34.4JAMESTOWN VOR/DME114.7007W

Airport Services

Runway Information

Runway E/W

Dimensions: 2000 x 100 ft. / 610 x 30 m
Surface: turf
RUNWAY E  RUNWAY W
Traffic pattern: leftleft
Obstructions: pline50 ft. trees, 500 ft. from runway

Airport Ownership and Management from official FAA records

Ownership: Privately-owned
Owner: GLENN D. GENTZKE
10661 CRUMP RD
HOLLAND, NY 14080
Phone 716 592-2023
Manager: GLENN D. GENTZKE
10661 CRUMP RD
HOLLAND, NY 14080
Phone 716 592-2023

Airport Operational Statistics

Aircraft based on the field: 3
Single engine airplanes: 3
    

Additional Remarks

FOR CD CTC CLEVELAND ARTCC AT 440-774-0490.
(ARPT STATUS) ARPT CLSD INDEFLY.

Instrument Procedures

There are no published instrument procedures at NY40.

Some nearby airports with instrument procedures:

9G0 - Buffalo Airfield (16 nm N)
KBUF - Buffalo Niagara International Airport (21 nm N)
KOLE - Cattaraugus County-Olean Airport (24 nm SE)
9G3 - Akron Airport/Jesson Field (25 nm N)
KDKK - Chautauqua County/Dunkirk Airport (31 nm W)
 
Loc | Ops | Rwys | IFR | FBO | Links
Com | Nav | Svcs | Stats | Notes
Area around NY40 (Gentzke Aeronautical Park Airport)
 
Road maps at: MapQuest Bing Google
 
Aerial photo
No photo
 
Sectional chart

 
Airport distance calculator
Flying to Gentzke Aeronautical Park Airport? Find the distance to fly.

From to NY40

Sunrise and sunset
Times for 06-Dec-2022
 Local
(UTC-5)
 Zulu
(UTC)
Morning civil twilight06:5911:59
Sunrise07:3112:31
Sunset16:4021:40
Evening civil twilight17:1222:12

Current date and time
Zulu (UTC)  06-Dec-2022 06:39:25
Local (UTC-5)  06-Dec-2022 01:39:25
 
METAR
KBUF 
20nm N 
060554Z 16007KT 10SM FEW080 OVC130 06/M05 A3002 RMK AO2 SLP171 T00611050 10072 20044 51001
KOLE 
25nm SE 
060615Z AUTO 16009KT 10SM BKN060 00/M05 A3005 RMK AO2
KDKK 
31nm W 
060553Z AUTO 16015G22KT 10SM CLR 08/M06 A3000 RMK AO2 SLP163 T00831056 10089 20078 58004
KGVQ 
32nm NE 
060556Z AUTO 17010G17KT 10SM BKN080 06/M04 A3003 RMK AO2 SLP173 T00561039 10072 20056 50003
CWPC 
33nm NW 
060600Z AUTO 18018KT 07/M02 RMK AO1 PK WND 18023/0524 SLP177 T00681016 50000
KIAG 
34nm NW 
060553Z AUTO 19013KT 10SM CLR 07/M03 A3000 RMK AO2 SLP169 T00721033 10072 20033 58002
KDSV 
39nm E 
060554Z AUTO 13011KT 10SM BKN080 06/M04 A3010 RMK AO2 SLP206 T00561039 10056 20044 50008
TAF
KBUF 
20nm N 
060525Z 0606/0706 17010KT P6SM OVC100 FM061200 17005KT P6SM OVC040 FM061400 17004KT P6SM OVC025 FM061800 16004KT P6SM OVC015 FM070300 00000KT P6SM OVC007
NOTAMs
Click for the latest NOTAMs
NOTAMs are issued by the DoD/FAA and will open in a separate window not controlled by AirNav.

 

 
 

Would you like to see your business listed on this page?

 If your business provides an interesting product or service to pilots, flight crews, aircraft, or users of the Gentzke Aeronautical Park Airport, you should consider listing it here.  To start the listing process, click on the button below
 
Add a business
 

Other Pages about Gentzke Aeronautical Park Airport

Update a link
 
Copyright © AirNav, LLC. All rights reserved. Privacy Policy  Contact